Lapse_Rate
5.3 5.3 4.6 5.2 4.9 4.9 5.0 4.7 4.7 4.6 4.9 4.9 4.8 5.2 5.2 5.5 5.6 5.5 5.5 5.4 5.3 5.3 5.4 5.2 5.5 5.5 5.4 5.2 5.4 5.2 5.0 5.4 5.5 5.5 5.5 5.4 5.4 5.7
5.3 5.2 4.7 5.2 5.1 4.9 4.7 4.8 4.9 4.5 4.6 4.7 5.0 4.9 5.2 5.4 5.4 5.5 5.5 5.3 5.4 5.2 5.2 5.3 5.5 5.3 5.2 5.2 5.1 5.1 4.9 5.0 5.2 5.3 5.5 5.6 5.7 5.8
5.1 4.9 5.3 5.2 5.1 4.7 4.9 4.8 4.8 4.5 4.6 4.8 5.1 5.0 5.2 5.3 5.5 5.5 5.4 5.4 5.5 5.4 5.5 5.5 5.2 5.2 5.1 5.0 5.0 4.9 5.1 5.3 5.2 5.3 5.2 5.3 5.4 5.4
4.8 4.7 4.8 4.4 4.5 5.0 4.9 5.0 5.2 4.9 4.8 5.2 5.2 4.8 5.1 4.8 4.8 5.4 5.4 5.2 5.5 5.4 5.3 5.3 5.1 5.1 5.1 5.3 5.4 5.3 5.4 5.3 5.5 5.6 5.7 5.6 5.4 5.2
5.2 5.2 4.7 4.7 4.8 5.3 5.1 5.2 5.2 5.1 5.1 5.1 5.4 5.4 5.5 5.5 5.5 5.4 5.4 5.3 5.3 5.5 5.6 5.3 5.2 5.4 5.5 5.6 5.5 5.7 5.7 5.8 5.8 5.8 5.6 5.7 5.5 5.6
5.1 5.2 5.1 5.1 5.4 5.4 5.2 5.2 5.2 5.3 5.2 5.2 5.5 5.4 5.5 5.7 5.4 5.7 5.8 5.5 5.5 5.5 5.4 5.3 5.5 5.5 5.6 5.7 5.6 5.7 5.9 5.8 5.8 5.5 5.6 5.8 5.7 5.5
5.2 5.3 5.5 5.5 5.5 5.5 5.6 5.5 5.3 5.3 5.2 5.6 5.8 5.6 5.8 5.7 5.6 5.7 5.8 5.8 5.9 5.9 5.7 5.8 5.6 5.5 5.4 5.3 5.6 5.6 6.0 6.0 5.7 5.6 5.8 5.5 5.6 5.4
5.5 5.6 5.9 5.6 5.7 5.5 5.5 5.6 5.6 5.7 5.3 5.5 5.4 5.5 5.7 5.7 5.7 6.0 5.7 5.5 6.2 5.9 5.5 5.5 5.5 5.8 5.6 5.8 5.8 5.5 5.5 5.4 5.6 5.4 5.3 5.1 5.4 5.4
5.5 5.7 5.8 5.8 5.8 5.8 5.7 5.8 5.7 5.7 5.5 5.4 5.6 5.6 5.4 5.6 5.8 5.6 5.7 5.5 5.6 5.5 5.5 5.5 5.6 5.8 5.7 5.6 5.6 5.3 5.3 5.3 5.8 5.9 6.1 6.1 5.9 5.7
5.8 6.0 6.0 6.0 6.0 5.6 5.5 5.7 5.5 5.6 5.8 5.6 5.5 5.6 5.6 5.6 5.9 6.0 5.9 5.8 5.7 5.5 5.6 5.6 5.7 5.7 5.6 5.7 5.6 5.7 5.6 5.6 5.7 5.8 5.8 5.7 5.6 5.5
5.7 5.7 5.8 5.9 5.8 5.8 5.6 5.7 5.7 5.7 5.9 5.9 5.7 5.7 5.8 5.8 6.0 5.7 5.7 5.5 5.6 5.6 5.7 5.7 5.8 5.7 5.7 5.6 5.5 5.4 5.3 5.4 5.4 5.3 5.1 5.0 4.9 5.0
5.7 5.7 5.7 5.6 5.7 5.7 5.6 5.5 5.7 5.9 5.7 5.6 5.6 5.8 5.5 5.8 5.8 5.7 5.8 5.7 5.5 5.5 5.5 5.4 5.4 5.3 5.2 5.1 5.0 5.0 5.0 5.0 4.8 4.6 4.7 4.7 4.7 4.6
5.7 5.7 5.6 5.7 5.8 5.8 5.6 5.5 5.7 5.8 5.9 5.6 5.7 5.8 6.0 5.8 5.8 5.8 5.7 5.6 5.4 5.3 5.1 5.0 4.9 4.8 4.6 4.6 4.6 4.6 4.7 4.7 4.7 4.7 4.7 4.8 4.7 4.6
5.6 5.5 5.5 5.6 5.6 5.7 5.7 5.7 5.7 5.7 5.7 5.5 5.7 5.8 5.7 5.6 5.4 5.3 5.3 5.2 5.0 4.8 4.7 4.6 4.5 4.4 4.3 4.3 4.3 4.5 4.6 4.7 4.7 4.8 4.8 4.6 4.4 4.7
5.4 5.7 5.4 5.4 5.4 5.3 5.4 5.6 5.6 5.4 5.3 5.5 5.6 5.5 5.2 5.0 4.9 4.8 4.7 4.6 4.4 4.3 4.1 4.1 4.1 4.1 4.0 4.0 4.1 4.1 4.2 4.3 4.3 4.3 4.4 4.5 4.7 4.9
5.4 5.5 5.4 5.3 5.3 5.4 5.4 5.4 5.3 5.3 5.4 5.4 5.2 5.0 4.9 4.7 4.7 4.6 4.4 4.2 4.2 4.2 4.2 3.9 3.8 3.7 3.6 3.7 3.9 3.8 3.9 3.9 4.0 4.3 4.4 4.5 4.3 4.3
5.0 4.9 5.0 5.0 4.8 4.8 4.9 5.0 5.0 5.0 5.0 5.0 4.8 4.7 4.6 4.4 4.3 4.2 4.1 4.0 3.9 3.7 3.7 3.7 3.7 3.6 3.7 3.7 3.7 3.7 3.8 4.0 4.3 4.3 4.2 4.3 4.2 4.1
4.7 4.5 4.4 4.7 4.7 4.6 4.6 4.7 4.5 4.3 4.3 4.2 4.1 4.0 4.0 4.0 4.0 3.8 3.6 3.5 3.4 3.3 3.4 3.5 3.6 3.6 3.5 3.5 3.8 4.0 4.0 4.2 4.3 4.3 4.3 4.3 4.3 4.0
4.1 3.9 4.1 4.2 4.6 4.5 4.2 4.1 4.1 4.1 3.9 3.7 3.8 3.7 3.7 3.5 3.4 3.3 3.1 3.0 3.0 3.1 3.2 3.3 3.5 3.7 3.6 3.7 3.8 3.8 4.2 4.1 4.0 4.1 4.1 4.0 4.2 4.2
4.3 4.3 4.3 4.4 4.2 4.3 4.1 4.1 4.1 3.8 3.4 3.3 3.3 3.2 3.1 3.1 3.0 2.9 3.0 3.0 3.0 3.2 3.2 3.1 3.3 3.5 3.6 3.7 3.9 3.8 3.7 3.7 4.1 4.2 4.5 4.6 4.7 4.9
3.6 3.7 3.7 3.8 3.9 3.9 3.9 3.7 3.2 3.0 2.9 2.9 2.9 2.8 2.8 2.9 2.9 2.9 3.0 3.1 3.1 3.2 3.2 3.2 3.3 3.4 3.5 3.6 3.9 4.0 4.0 3.9 4.2 4.6 5.0 5.3 5.6 5.7
3.8 3.8 3.7 3.6 3.5 3.2 3.0 2.9 2.8 2.7 2.7 2.8 2.9 2.9 2.9 2.9 3.0 3.1 3.1 3.0 3.0 3.0 3.1 3.4 3.4 3.7 3.9 4.0 4.0 4.3 4.6 4.6 4.7 5.2 5.5 5.7 5.8 6.0
3.1 3.0 2.9 2.9 2.8 2.8 2.8 2.8 2.9 3.0 3.0 3.0 2.9 2.9 2.8 3.0 2.9 2.9 2.9 3.0 3.1 3.4 3.7 3.8 4.0 4.0 4.1 4.3 4.4 4.7 4.8 5.0 5.5 5.7 5.6 5.5 5.7 5.7
Wind_Speed
11 10 4 3 3 3 1 2 4 4 6 6 3 6 12 16 18 19 18 19 26 30 32 33 36 36 37 38 37 37 34 32 32 33 33 35 37 38
10 13 5 3 3 1 2 1 3 2 3 2 3 3 6 6 13 18 17 19 23 29 33 35 38 40 39 38 34 32 31 29 29 32 33 31 30 31
6 7 6 4 3 1 1 1 1 3 3 2 1 3 1 3 4 11 17 18 19 28 33 37 39 41 40 34 37 34 29 27 27 26 27 28 28 28
7 6 5 3 5 5 4 5 3 4 4 5 3 1 3 4 5 6 10 16 18 24 33 37 40 34 18 14 17 20 22 23 23 22 23 24 24 25
7 6 5 5 6 6 5 6 4 3 3 3 4 4 6 5 6 7 8 11 19 24 27 16 14 19 18 18 17 15 12 9 9 11 12 12 14 17
5 7 8 10 11 8 7 7 5 5 5 5 6 6 5 7 5 7 9 6 7 8 23 20 17 19 18 16 18 17 16 17 16 15 14 13 12 11
9 10 11 10 12 11 7 6 6 6 6 6 7 6 7 7 8 4 5 3 4 5 3 5 8 8 12 14 14 16 15 15 14 14 13 12 13 12
10 11 12 7 9 12 2 16 8 4 8 5 6 9 5 2 2 2 1 2 1 7 4 2 3 5 9 11 12 12 12 13 14 14 13 13 13 13
3 3 5 5 7 9 16 17 16 14 9 1 1 2 3 4 3 1 1 2 0 4 3 2 2 3 7 8 10 10 11 11 13 12 12 13 13 11
10 8 7 6 6 5 11 12 11 10 8 7 9 6 4 1 1 1 2 3 3 3 4 1 1 1 2 5 7 7 9 11 11 11 11 13 16 17
11 11 7 6 5 11 11 13 11 10 18 22 21 19 20 20 16 2 3 1 2 2 6 2 1 1 1 1 3 1 3 4 4 4 5 9 14 16
10 12 21 13 14 12 10 9 10 6 7 8 7 12 16 18 21 11 5 3 2 2 3 2 2 1 1 2 4 9 7 4 4 6 3 4 8 9
9 9 9 22 23 21 16 9 8 7 7 7 7 7 7 7 6 12 11 5 4 3 3 1 2 3 1 1 2 3 5 6 5 3 5 5 13 15
11 9 12 26 25 21 14 14 13 7 6 6 6 6 5 3 2 3 8 12 13 7 9 10 1 2 2 2 2 2 1 5 2 2 5 9 12 15
9 15 20 21 21 17 21 18 12 6 6 6 5 4 2 0 3 1 1 8 9 9 10 10 3 4 2 2 2 3 3 2 5 3 4 4 3 11
11 10 11 12 13 10 9 8 6 5 5 4 3 3 2 3 3 3 3 3 2 2 8 7 9 4 2 2 3 3 4 2 4 4 3 5 11 15
9 8 8 8 7 7 7 7 6 4 4 3 3 3 4 4 3 4 3 3 2 1 2 3 11 13 7 1 2 3 4 3 4 6 7 7 5 9
9 8 8 7 7 6 5 6 5 6 5 5 4 5 3 3 3 3 4 3 3 3 2 2 3 3 5 4 6 2 3 3 3 5 7 7 8 8
8 7 7 6 6 7 5 6 5 4 4 5 5 5 5 4 4 4 5 4 5 6 4 3 3 4 4 3 4 6 6 5 2 4 3 6 8 9
8 7 6 6 6 7 6 6 5 5 4 4 3 4 5 3 3 4 4 3 4 5 4 4 3 2 1 3 3 7 15 2 2 2 5 7 9 21
7 7 7 7 6 6 5 3 3 2 3 3 3 5 4 5 3 4 4 5 5 4 5 5 4 9 5 4 3 4 3 15 13 7 4 6 8 8
6 7 7 6 5 4 4 3 3 4 5 5 4 4 4 4 3 3 3 3 4 2 4 5 8 8 6 4 4 4 3 3 17 13 17 16 4 5
6 5 6 6 6 5 5 3 4 5 5 6 5 4 4 3 4 3 3 3 4 4 6 6 7 8 8 8 7 5 7 7 7 6 6 20 24 25
Wind_Direction
195 210 170 165 155 139 86 82 142 164 185 188 161 191 186 199 209 216 215 223 229 233 237 241 245 246 248 247 243 244 243 247 252 256 257 257 256 258
202 193 168 164 156 90 103 19 65 150 165 117 214 152 193 208 214 222 224 232 238 241 243 245 248 248 248 250 251 249 246 250 251 253 257 259 261 263
166 166 149 135 134 206 258 21 148 135 144 299 129 112 134 192 222 231 235 224 233 241 247 250 251 252 254 255 254 253 250 254 258 263 265 266 267 271
146 141 160 164 188 190 192 208 206 190 160 195 222 125 231 213 212 218 226 234 236 242 240 244 251 255 274 282 286 281 276 273 274 275 273 274 275 274
152 153 162 190 199 202 200 193 191 176 170 173 213 207 239 240 243 238 235 243 248 249 251 80 79 81 76 66 53 40 29 1 338 333 318 312 307 299
179 197 210 217 222 208 189 196 182 183 184 210 231 234 236 260 237 259 269 246 253 263 78 90 82 69 60 52 56 59 55 60 68 64 56 55 57 55
201 210 228 228 218 200 207 195 177 200 206 218 243 256 255 257 250 262 261 307 65 15 90 56 72 61 57 55 57 63 63 67 60 59 54 43 44 41
203 208 225 225 213 202 188 69 62 219 227 217 245 261 272 60 43 49 40 32 341 38 4 88 65 75 65 69 72 68 63 61 57 52 46 37 33 32
120 111 97 63 36 93 95 87 70 57 50 39 182 59 36 22 332 347 81 102 90 12 341 66 27 77 75 72 68 65 61 55 50 45 37 26 12 2
54 50 68 67 37 97 105 88 76 61 50 66 79 83 69 0 249 27 103 109 79 72 357 86 14 76 103 82 71 57 48 44 39 32 21 14 3 353
59 52 55 49 38 115 108 105 96 84 77 83 85 76 58 50 41 120 83 137 117 73 16 352 132 149 199 166 199 115 68 60 39 356 13 18 9 359
63 52 45 52 68 91 108 114 105 106 107 96 75 57 56 40 46 42 23 61 87 103 0 360 342 359 214 198 195 195 201 218 269 262 284 339 356 354
68 61 55 64 65 68 71 79 93 101 88 74 75 73 56 49 36 39 45 45 86 76 305 328 11 344 324 346 220 206 204 250 256 334 242 272 351 347
78 73 66 66 64 63 71 76 79 75 80 83 73 66 52 51 24 61 97 99 84 95 25 20 14 28 325 307 283 289 201 294 69 16 20 5 351 335
85 82 75 69 62 56 55 54 53 56 66 71 70 77 79 22 57 309 149 136 118 107 75 40 39 347 346 314 301 334 350 335 46 4 15 358 300 311
85 85 88 81 73 69 62 56 56 52 49 54 56 30 30 39 41 16 11 356 58 4 89 59 24 357 322 358 349 318 354 359 358 7 347 323 316 310
81 75 73 69 66 70 59 52 36 36 44 29 30 37 47 12 32 16 5 350 42 25 349 26 13 350 303 142 359 357 354 355 5 349 340 319 310 315
70 71 65 65 66 59 61 63 45 31 29 36 33 26 30 40 13 31 21 11 358 349 359 13 2 5 354 50 43 9 7 341 327 333 326 324 314 320
71 65 68 63 67 58 52 49 47 28 27 41 39 28 7 18 19 16 55 19 5 348 340 344 37 60 18 323 326 350 333 315 300 308 308 308 304 307
62 65 63 62 63 64 60 48 48 21 16 36 32 24 6 8 28 18 24 17 358 325 351 352 50 68 158 229 246 285 303 297 277 278 295 292 284 294
61 59 52 51 59 63 43 53 60 41 8 27 27 33 11 3 10 5 7 6 338 3 353 344 341 314 258 268 346 298 287 317 317 303 291 298 307 309
57 60 55 51 41 40 61 26 40 45 27 22 29 28 1 340 11 354 354 350 338 341 336 326 352 336 320 307 305 293 292 312 324 324 323 332 327 299
40 55 57 43 30 32 31 44 43 40 39 22 18 1 345 335 4 347 332 342 356 340 3 0 346 336 335 330 325 330 329 326 323 329 330 323 315 308